Location: Indian Tree Observatory
(39.4030°N, 104.5929°W)
Time: 15:04:26
(UTC-07:00)

Envisat - Visible Passes

Search period start: 19 November 2018 00:00
Search period end: 29 November 2018 00:00
Orbit: 764 x 766 km, 98.2° (Epoch: 19 November)

Date Brightness Start Highest point End Pass type
(mag) Time Alt. Az. Time Alt. Az. Time Alt. Az.
19 Nov 4.2 17:46:21 15° E 17:48:41 20° ENE 17:52:20 10° NNE visible
19 Nov 3.9 19:26:34 43° SW 19:27:21 46° W 19:32:14 10° NNW visible
20 Nov 2.8 18:49:33 57° SE 18:50:35 77° ENE 18:55:40 10° N visible
20 Nov 5.9 20:29:46 11° W 20:30:08 11° W 20:31:32 10° WNW visible
21 Nov 3.5 18:12:31 29° ESE 18:14:00 34° ENE 18:18:33 10° N visible
21 Nov 4.9 19:52:44 26° W 19:53:02 26° W 19:57:15 10° NW visible
22 Nov 6.2 06:21:09 10° ENE 06:23:12 12° E 06:25:14 10° ESE visible
22 Nov 4.4 17:35:28 13° E 17:37:37 16° ENE 17:40:41 10° NNE visible
22 Nov 3.4 19:11:08 10° S 19:16:08 60° W 19:21:09 10° NNW visible
23 Nov 2.9 18:38:37 53° ESE 18:39:25 61° ENE 18:44:25 10° N visible
23 Nov 5.7 20:18:50 15° W 20:18:50 15° W 20:21:34 10° WNW visible
24 Nov 3.8 18:01:32 24° E 18:02:54 28° ENE 18:07:08 10° N visible
24 Nov 4.5 19:37:14 10° SSW 19:41:46 33° W 19:46:20 10° NNW visible
25 Nov 4.6 17:24:26 10° E 17:26:35 13° ENE 17:28:49 10° NE visible
25 Nov 3.0 18:59:52 10° S 19:04:55 76° WSW 19:10:01 10° NNW visible
26 Nov 3.1 18:23:26 10° SE 18:28:16 48° ENE 18:33:08 10° N visible
26 Nov 5.4 20:07:44 19° W 20:07:44 19° W 20:11:02 10° NW visible
27 Nov 4.1 17:50:24 20° E 17:51:48 22° ENE 17:55:39 10° NNE visible
27 Nov 4.1 19:25:45 10° S 19:30:37 42° W 19:35:20 10° NNW visible
28 Nov 4.8 17:15:10 10° ENE 17:15:33 10° ENE 17:15:56 10° NE visible
28 Nov 2.8 18:48:40 10° SSE 18:53:44 85° ENE 18:58:50 10° NNW visible
